Tracking 19827 objects as of 23-Aug-2019
HD Live streaming from Space Station
objects crossing your sky now

FENGYUN 1C DEB

Track FENGYUN 1C DEB now!
10-day predictions


NORAD ID: 38726
Int'l Code: 1999-025ETT
Perigee: 751.2 km
Apogee: 881.9 km
Inclination: 99.2 °
Period: 101.1 minutes
Semi major axis: 7187 km
RCS: 0.003 m2 (small)
Launch date: May 10, 1999
Source: People's Republic of China (PRC)
Launch site: Taiyaun Space Center, China (TSC)

Note: This is SATELLITE DEBRIS
aabbcc
Your satellite tracking list
Your tracking list is empty




NASA's NSSDC Master Catalog

Two Line Element Set (TLE):
1 38726U 99025ETT 19230.73327705 +.00000416 +00000-0 +19089-3 0  9991
2 38726 099.2097 065.0781 0090906 065.2303 295.8300 14.24720371434553
Source of the keplerian elements: AFSPC